| time (UTC) | temp C | wind direction | speed KPH | gust KPH | rain 1hr cm | rain 24hr cm | rain mn cm | humidity % | barometer mb |
| 20260504050539 | 7 | 79 | 0.0 | 4.8 | 0.00 | 0.00 | 0.00 | 64 | 1037.4 |
| 20260504045541 | 8 | 85 | 0.0 | 3.2 | 0.00 | 0.00 | 0.00 | 64 | 1037.6 |
| 20260504045040 | 8 | 91 | 0.0 | 3.2 | 0.00 | 0.00 | 0.00 | 63 | 1037.6 |
| 20260504044536 | 8 | 85 | 0.0 | 4.8 | 0.00 | 0.00 | 0.00 | 63 | 1037.6 |
| 20260504044036 | 8 | 81 | 1.6 | 4.8 | 0.00 | 0.00 | 0.00 | 63 | 1037.4 |
| 20260504043536 | 8 | 91 | 0.0 | 4.8 | 0.00 | 0.00 | 0.00 | 63 | 1037.4 |
| 20260504043034 | 8 | 89 | 0.0 | 3.2 | 0.00 | 0.00 | 0.00 | 62 | 1037.5 |
| 20260504042532 | 8 | 97 | 0.0 | 3.2 | 0.00 | 0.00 | 0.00 | 62 | 1037.5 |
| 20260504042033 | 8 | 82 | 0.0 | 4.8 | 0.00 | 0.00 | 0.00 | 61 | 1037.4 |
| 20260504041532 | 8 | 76 | 1.6 | 4.8 | 0.00 | 0.00 | 0.00 | 61 | 1037.4 |
| 20260504041032 | 8 | 86 | 0.0 | 0.0 | 0.00 | 0.00 | 0.00 | 61 | 1037.3 |
| 20260504040531 | 8 | 85 | 0.0 | 0.0 | 0.00 | 0.00 | 0.00 | 62 | 1037.3 |
| 20260504040030 | 8 | 85 | 0.0 | 0.0 | 0.00 | 0.00 | 0.00 | 60 | 1037.3 |
| 20260504035530 | 8 | 86 | 0.0 | 0.0 | 0.00 | 0.00 | 0.00 | 61 | 1037.3 |
| 20260504035030 | 8 | 86 | 0.0 | 0.0 | 0.00 | 0.00 | 0.00 | 60 | 1037.2 |
| 20260504034529 | 8 | 86 | 0.0 | 0.0 | 0.00 | 0.00 | 0.00 | 60 | 1037.1 |
| 20260504034033 | 8 | 85 | 0.0 | 0.0 | 0.00 | 0.00 | 0.00 | 59 | 1037.0 |
| 20260504033530 | 9 | 84 | 0.0 | 3.2 | 0.00 | 0.00 | 0.00 | 59 | 1037.1 |
| 20260504033032 | 9 | 82 | 0.0 | 4.8 | 0.00 | 0.00 | 0.00 | 59 | 1037.0 |
| 20260504032528 | 9 | 82 | 0.0 | 4.8 | 0.00 | 0.00 | 0.00 | 58 | 1037.1 |
| 20260504032028 | 9 | 82 | 0.0 | 0.0 | 0.00 | 0.00 | 0.00 | 59 | 1037.1 |
| 20260504031530 | 9 | 82 | 0.0 | 0.0 | 0.00 | 0.00 | 0.00 | 58 | 1037.0 |
| 20260504031032 | 9 | 82 | 0.0 | 0.0 | 0.00 | 0.00 | 0.00 | 58 | 1037.0 |
| 20260504030528 | 9 | 82 | 0.0 | 0.0 | 0.00 | 0.00 | 0.00 | 58 | 1036.9 |
| 20260504030028 | 9 | 82 | 0.0 | 0.0 | 0.00 | 0.00 | 0.00 | 58 | 1037.0 |
| 20260504025528 | 9 | 79 | 0.0 | 6.4 | 0.00 | 0.00 | 0.00 | 58 | 1037.1 |
| 20260504025028 | 9 | 79 | 0.0 | 6.4 | 0.00 | 0.00 | 0.00 | 57 | 1037.0 |
| 20260504024528 | 9 | 104 | 0.0 | 4.8 | 0.00 | 0.00 | 0.00 | 58 | 1037.0 |
| 20260504024029 | 9 | 91 | 0.0 | 0.0 | 0.00 | 0.00 | 0.00 | 58 | 1036.9 |
| 20260504023528 | 9 | 91 | 0.0 | 1.6 | 0.00 | 0.00 | 0.00 | 58 | 1036.9 |
| 20260504023028 | 10 | 89 | 0.0 | 3.2 | 0.00 | 0.00 | 0.00 | 58 | 1037.0 |
| 20260504022528 | 10 | 86 | 0.0 | 3.2 | 0.00 | 0.00 | 0.00 | 57 | 1037.0 |
| 20260504022027 | 10 | 87 | 0.0 | 3.2 | 0.00 | 0.00 | 0.00 | 57 | 1037.1 |
| 20260504021529 | 10 | 86 | 0.0 | 4.8 | 0.00 | 0.00 | 0.00 | 56 | 1037.1 |
| 20260504021027 | 10 | 79 | 0.0 | 6.4 | 0.00 | 0.00 | 0.00 | 55 | 1037.0 |
| 20260504020527 | 10 | 101 | 0.0 | 6.4 | 0.00 | 0.00 | 0.00 | 55 | 1037.0 |
| 20260504020029 | 10 | 90 | 0.0 | 4.8 | 0.00 | 0.00 | 0.00 | 54 | 1037.0 |
| 20260504015526 | 10 | 86 | 1.6 | 4.8 | 0.00 | 0.00 | 0.00 | 54 | 1037.0 |
| 20260504015031 | 10 | 89 | 0.0 | 4.8 | 0.00 | 0.00 | 0.00 | 55 | 1037.0 |
| 20260504014540 | 10 | 88 | 1.6 | 4.8 | 0.00 | 0.00 | 0.00 | 54 | 1036.9 |
| 20260504014027 | 10 | 86 | 0.0 | 4.8 | 0.00 | 0.00 | 0.00 | 54 | 1036.9 |
| 20260504013526 | 10 | 91 | 1.6 | 4.8 | 0.00 | 0.00 | 0.00 | 53 | 1036.9 |
| 20260504013026 | 10 | 84 | 0.0 | 3.2 | 0.00 | 0.00 | 0.00 | 54 | 1036.8 |
| 20260504012527 | 10 | 75 | 0.0 | 0.0 | 0.00 | 0.00 | 0.00 | 54 | 1036.8 |
| 20260504012024 | 10 | 81 | 0.0 | 0.0 | 0.00 | 0.00 | 0.00 | 54 | 1036.8 |
| 20260504011525 | 10 | 89 | 0.0 | 0.0 | 0.00 | 0.00 | 0.00 | 54 | 1036.8 |
| 20260504011024 | 11 | 91 | 0.0 | 3.2 | 0.00 | 0.00 | 0.00 | 53 | 1036.6 |
| 20260504010527 | 11 | 95 | 0.0 | 3.2 | 0.00 | 0.00 | 0.00 | 53 | 1036.5 |
| 20260504010025 | 11 | 86 | 0.0 | 3.2 | 0.00 | 0.00 | 0.00 | 52 | 1036.5 |
| 20260504005524 | 11 | 82 | 0.0 | 4.8 | 0.00 | 0.00 | 0.00 | 51 | 1036.5 |
| 20260504005026 | 11 | 84 | 0.0 | 4.8 | 0.00 | 0.00 | 0.00 | 51 | 1036.5 |
| 20260504004524 | 11 | 82 | 0.0 | 3.2 | 0.00 | 0.00 | 0.00 | 50 | 1036.5 |
| 20260504004026 | 11 | 83 | 0.0 | 1.6 | 0.00 | 0.00 | 0.00 | 51 | 1036.5 |
| 20260504003524 | 11 | 82 | 0.0 | 1.6 | 0.00 | 0.00 | 0.00 | 49 | 1036.4 |
| 20260504003024 | 12 | 80 | 0.0 | 3.2 | 0.00 | 0.00 | 0.00 | 48 | 1036.3 |
| 20260504002523 | 12 | 80 | 0.0 | 4.8 | 0.00 | 0.00 | 0.00 | 47 | 1036.3 |
| 20260504002023 | 12 | 93 | 0.0 | 6.4 | 0.00 | 0.00 | 0.00 | 46 | 1036.2 |
| 20260504001525 | 12 | 89 | 1.6 | 6.4 | 0.00 | 0.00 | 0.00 | 46 | 1036.2 |
| 20260504001023 | 12 | 90 | 0.0 | 4.8 | 0.00 | 0.00 | 0.00 | 47 | 1036.2 |
| 20260504000522 | 12 | 98 | 0.0 | 9.7 | 0.00 | 0.00 | 0.00 | 46 | 1036.2 |
| 20260504000037 | 13 | 96 | 1.6 | 9.7 | 0.00 | 0.00 | 0.00 | 44 | 1036.1 |
| 20260503235522 | 13 | 89 | 1.6 | 11.3 | 0.00 | 0.00 | 0.00 | 44 | 1036.1 |
| 20260503235024 | 13 | 82 | 3.2 | 11.3 | 0.00 | 0.00 | 0.00 | 42 | 1036.0 |
| 20260503234523 | 13 | 73 | 0.0 | 9.7 | 0.00 | 0.00 | 0.00 | 43 | 1036.0 |
| 20260503234023 | 13 | 114 | 1.6 | 17.7 | 0.00 | 0.00 | 0.00 | 43 | 1035.9 |
| 20260503233522 | 14 | 83 | 3.2 | 17.7 | 0.00 | 0.00 | 0.00 | 40 | 1035.8 |
| 20260503233024 | 14 | 79 | 1.6 | 9.7 | 0.00 | 0.00 | 0.00 | 42 | 1035.8 |
| 20260503232521 | 14 | 100 | 3.2 | 11.3 | 0.00 | 0.00 | 0.00 | 42 | 1035.8 |
| 20260503232021 | 14 | 100 | 1.6 | 14.5 | 0.00 | 0.00 | 0.00 | 41 | 1035.8 |
| 20260503231521 | 14 | 157 | 3.2 | 14.5 | 0.00 | 0.00 | 0.00 | 42 | 1035.8 |
| 20260503231021 | 14 | 75 | 0.0 | 14.5 | 0.00 | 0.00 | 0.00 | 44 | 1035.7 |
| 20260503230521 | 14 | 68 | 6.4 | 14.5 | 0.00 | 0.00 | 0.00 | 42 | 1035.7 |
| 20260503230021 | 14 | 94 | 3.2 | 12.9 | 0.00 | 0.00 | 0.00 | 41 | 1035.6 |
| 20260503225520 | 14 | 86 | 1.6 | 12.9 | 0.00 | 0.00 | 0.00 | 41 | 1035.7 |
| 20260503225020 | 14 | 91 | 3.2 | 11.3 | 0.00 | 0.00 | 0.00 | 42 | 1035.7 |
| 20260503224520 | 14 | 87 | 3.2 | 11.3 | 0.00 | 0.00 | 0.00 | 41 | 1035.7 |
| 20260503224023 | 14 | 65 | 4.8 | 20.9 | 0.00 | 0.00 | 0.00 | 40 | 1035.7 |
| 20260503223519 | 15 | 117 | 3.2 | 20.9 | 0.00 | 0.00 | 0.00 | 39 | 1035.6 |
| 20260503223019 | 15 | 71 | 4.8 | 12.9 | 0.00 | 0.00 | 0.00 | 39 | 1035.7 |
| 20260503222519 | 15 | 86 | 1.6 | 22.5 | 0.00 | 0.00 | 0.00 | 40 | 1035.8 |
| 20260503222019 | 15 | 94 | 4.8 | 25.7 | 0.00 | 0.00 | 0.00 | 39 | 1035.6 |
| 20260503221519 | 15 | 75 | 11.3 | 25.7 | 0.00 | 0.00 | 0.00 | 36 | 1035.5 |
| 20260503221021 | 15 | 110 | 4.8 | 14.5 | 0.00 | 0.00 | 0.00 | 39 | 1035.6 |
| 20260503220518 | 15 | 91 | 3.2 | 14.5 | 0.00 | 0.00 | 0.00 | 38 | 1035.7 |
| 20260503220021 | 14 | 108 | 4.8 | 24.1 | 0.00 | 0.00 | 0.00 | 39 | 1035.7 |
| 20260503215519 | 15 | 67 | 4.8 | 24.1 | 0.00 | 0.00 | 0.00 | 40 | 1035.9 |
| 20260503215018 | 15 | 140 | 3.2 | 16.1 | 0.00 | 0.00 | 0.00 | 38 | 1035.9 |
| 20260503214526 | 15 | 94 | 3.2 | 17.7 | 0.00 | 0.00 | 0.00 | 40 | 1035.7 |
| 20260503214017 | 15 | 64 | 6.4 | 25.7 | 0.00 | 0.00 | 0.00 | 37 | 1035.7 |
| 20260503213517 | 16 | 85 | 0.0 | 25.7 | 0.00 | 0.00 | 0.00 | 38 | 1035.5 |
| 20260503213018 | 15 | 91 | 6.4 | 20.9 | 0.00 | 0.00 | 0.00 | 36 | 1035.6 |
| 20260503212521 | 15 | 79 | 3.2 | 16.1 | 0.00 | 0.00 | 0.00 | 39 | 1035.5 |
| 20260503212016 | 15 | 106 | 3.2 | 16.1 | 0.00 | 0.00 | 0.00 | 40 | 1035.4 |
| 20260503211516 | 15 | 70 | 6.4 | 19.3 | 0.00 | 0.00 | 0.00 | 39 | 1035.4 |
| 20260503211017 | 15 | 82 | 6.4 | 19.3 | 0.00 | 0.00 | 0.00 | 38 | 1035.4 |
| 20260503210516 | 15 | 72 | 4.8 | 14.5 | 0.00 | 0.00 | 0.00 | 38 | 1035.6 |
| 20260503210036 | 16 | 82 | 3.2 | 14.5 | 0.00 | 0.00 | 0.00 | 41 | 1035.4 |
| 20260503205519 | 16 | 82 | 1.6 | 19.3 | 0.00 | 0.00 | 0.00 | 40 | 1035.6 |
| 20260503205015 | 15 | 82 | 3.2 | 19.3 | 0.00 | 0.00 | 0.00 | 40 | 1035.5 |
| 20260503204516 | 15 | 68 | 3.2 | 19.3 | 0.00 | 0.00 | 0.00 | 38 | 1035.5 |
| 20260503204018 | 15 | 103 | 6.4 | 19.3 | 0.00 | 0.00 | 0.00 | 38 | 1035.4 |
| 20260503203514 | 16 | 81 | 4.8 | 19.3 | 0.00 | 0.00 | 0.00 | 43 | 1035.5 |
| 20260503203018 | 15 | 78 | 4.8 | 16.1 | 0.00 | 0.00 | 0.00 | 40 | 1035.4 |
| 20260503202513 | 15 | 84 | 6.4 | 16.1 | 0.00 | 0.00 | 0.00 | 37 | 1035.7 |
| 20260503202013 | 15 | 68 | 4.8 | 25.7 | 0.00 | 0.00 | 0.00 | 40 | 1035.4 |
| 20260503201513 | 15 | 64 | 6.4 | 25.7 | 0.00 | 0.00 | 0.00 | 41 | 1035.3 |
| 20260503201011 | 15 | 103 | 3.2 | 12.9 | 0.00 | 0.00 | 0.00 | 38 | 1035.5 |
| 20260503200510 | 15 | 248 | 1.6 | 17.7 | 0.00 | 0.00 | 0.00 | 43 | 1035.7 |
| 20260503200015 | 15 | 110 | 6.4 | 17.7 | 0.00 | 0.00 | 0.00 | 41 | 1035.8 |
| 20260503195508 | 15 | 105 | 3.2 | 14.5 | 0.00 | 0.00 | 0.00 | 40 | 1035.9 |
| 20260503195008 | 15 | 81 | 6.4 | 20.9 | 0.00 | 0.00 | 0.00 | 37 | 1036.0 |
| 20260503194507 | 14 | 68 | 4.8 | 20.9 | 0.00 | 0.00 | 0.00 | 38 | 1036.1 |
| 20260503194007 | 14 | 85 | 8.0 | 17.7 | 0.00 | 0.00 | 0.00 | 39 | 1036.2 |
| 20260503193507 | 15 | 100 | 3.2 | 17.7 | 0.00 | 0.00 | 0.00 | 39 | 1036.4 |
| 20260503193006 | 15 | 82 | 3.2 | 25.7 | 0.00 | 0.00 | 0.00 | 39 | 1036.3 |
| 20260503192505 | 14 | 79 | 3.2 | 25.7 | 0.00 | 0.00 | 0.00 | 41 | 1036.5 |
| 20260503192005 | 14 | 108 | 6.4 | 19.3 | 0.00 | 0.00 | 0.00 | 40 | 1036.5 |
| 20260503191505 | 14 | 78 | 3.2 | 9.7 | 0.00 | 0.00 | 0.00 | 42 | 1036.6 |
| 20260503191004 | 14 | 136 | 0.0 | 11.3 | 0.00 | 0.00 | 0.00 | 40 | 1036.6 |
| 20260503190506 | 15 | 96 | 3.2 | 14.5 | 0.00 | 0.00 | 0.00 | 38 | 1036.7 |
| 20260503190004 | 15 | 108 | 6.4 | 20.9 | 0.00 | 0.00 | 0.00 | 38 | 1036.7 |
| 20260503185503 | 15 | 94 | 6.4 | 20.9 | 0.00 | 0.00 | 0.00 | 39 | 1036.8 |
| 20260503185004 | 15 | 82 | 6.4 | 19.3 | 0.00 | 0.00 | 0.00 | 36 | 1036.8 |
| 20260503184502 | 15 | 101 | 0.0 | 17.7 | 0.00 | 0.00 | 0.00 | 42 | 1036.7 |
| 20260503184001 | 15 | 74 | 4.8 | 17.7 | 0.00 | 0.00 | 0.00 | 39 | 1036.8 |
| 20260503183501 | 14 | 95 | 1.6 | 12.9 | 0.00 | 0.00 | 0.00 | 41 | 1036.9 |
| 20260503183108 | 15 | 89 | 3.2 | 11.3 | 0.00 | 0.00 | 0.00 | 40 | 1037.0 |
| 20260503182558 | 14 | 103 | 3.2 | 20.9 | 0.00 | 0.00 | 0.00 | 47 | 1037.1 |
| 20260503182058 | 14 | 71 | 9.7 | 20.9 | 0.00 | 0.00 | 0.00 | 36 | 1037.1 |
| 20260503181558 | 14 | 81 | 3.2 | 20.9 | 0.00 | 0.00 | 0.00 | 38 | 1037.1 |
| 20260503181056 | 14 | 115 | 1.6 | 17.7 | 0.00 | 0.00 | 0.00 | 44 | 1037.1 |
| 20260503180555 | 13 | 91 | 8.0 | 17.7 | 0.00 | 0.00 | 0.00 | 41 | 1037.1 |
| 20260503180106 | 13 | 198 | 3.2 | 17.7 | 0.00 | 0.00 | 0.00 | 44 | 1037.3 |
| 20260503175555 | 13 | 103 | 1.6 | 17.7 | 0.00 | 0.00 | 0.00 | 42 | 1037.3 |
| 20260503175054 | 13 | 91 | 4.8 | 19.3 | 0.00 | 0.00 | 0.00 | 42 | 1037.4 |
| 20260503174554 | 13 | 117 | 8.0 | 19.3 | 0.00 | 0.00 | 0.00 | 41 | 1037.6 |
| 20260503174055 | 13 | 283 | 4.8 | 17.7 | 0.00 | 0.00 | 0.00 | 43 | 1037.4 |
| 20260503173553 | 13 | 97 | 1.6 | 14.5 | 0.00 | 0.00 | 0.00 | 41 | 1037.6 |
| 20260503173142 | 13 | 73 | 3.2 | 16.1 | 0.00 | 0.00 | 0.00 | 47 | 1037.6 |
| 20260503172550 | 12 | 74 | 6.4 | 16.1 | 0.00 | 0.00 | 0.00 | 43 | 1037.8 |
| 20260503172050 | 12 | 79 | 1.6 | 16.1 | 0.00 | 0.00 | 0.00 | 45 | 1037.9 |
| 20260503171550 | 12 | 94 | 0.0 | 14.5 | 0.00 | 0.00 | 0.00 | 46 | 1037.8 |
| 20260503171048 | 12 | 74 | 1.6 | 14.5 | 0.00 | 0.00 | 0.00 | 42 | 1037.9 |
| 20260503170548 | 12 | 91 | 4.8 | 17.7 | 0.00 | 0.00 | 0.00 | 46 | 1038.0 |
| 20260503150538 | 10 | 31 | 11.3 | 20.9 | 0.00 | 0.00 | 0.00 | 44 | 1038.9 |
| 20260503131030 | 7 | 91 | 1.6 | 11.3 | 0.00 | 0.00 | 0.00 | 60 | 1039.6 |
| 20260503130526 | 7 | 58 | 3.2 | 14.5 | 0.00 | 0.00 | 0.00 | 63 | 1039.7 |
| 20260503110516 | 3 | 89 | 0.0 | 0.0 | 0.00 | 0.00 | 0.00 | 79 | 1039.0 |
| 20260503090500 | 2 | 88 | 0.0 | 0.0 | 0.00 | 0.00 | 0.00 | 77 | 1037.9 |
| 20260503090106 | 2 | 88 | 0.0 | 0.0 | 0.00 | 0.00 | 0.00 | 77 | 1037.9 |
| 20260503081557 | 4 | 83 | 0.0 | 3.2 | 0.00 | 0.00 | 0.00 | 69 | 1037.7 |
| 20260503081049 | 4 | 84 | 0.0 | 6.4 | 0.00 | 0.00 | 0.00 | 69 | 1037.7 |
| 20260503080549 | 5 | 87 | 0.0 | 6.4 | 0.00 | 0.00 | 0.00 | 68 | 1037.7 |
| 20260503072544 | 5 | 94 | 0.0 | 9.7 | 0.00 | 0.10 | 0.00 | 70 | 1037.3 |
| 20260503072044 | 5 | 68 | 0.0 | 3.2 | 0.00 | 0.10 | 0.00 | 71 | 1037.3 |
| 20260503071545 | 5 | 84 | 0.0 | 3.2 | 0.00 | 0.10 | 0.00 | 71 | 1037.3 |
| 20260503071043 | 5 | 59 | 0.0 | 3.2 | 0.00 | 0.10 | 0.00 | 70 | 1037.2 |